Hourly Data Report for July 20, 2021

MANIWAKI AIRPORT
QUEBEC
Current Station Operator: ECCC - MSC

46°16'29.000" N
75°59'31.000" W
199.70 m
7034482
71721
WMJ

Download Data

Hourly Data (July 2021)
Hourly Data Report for July 20, 2021
TIME
LST
Temp Definition
°C
Dew Point Definition
°C
Rel Hum Definition
%
Precip. Amount Definition
mm

Wind Dir Definition
10's deg

Wind Spd Definition
km/h
Visibility Definition
km
Stn Press Definition
kPa
Hmdx Definition


Wind Chill Definition


Weather Definition


00:00 18.3 17.5 95 0.0   0   98.98     LegendNANA
01:00 18.3 17.3 94 0.0 35 3   98.96     LegendNANA
02:00 19.0 17.8 93 0.8 27 5   98.99     LegendNANA
03:00 18.8 17.7 94 0.1 36 9   98.96     LegendNANA
04:00 17.5 16.8 96 0.4 36 3   98.94     LegendNANA
05:00 17.3 16.7 96 0.1 36 3   98.94     LegendNANA
06:00 17.5 16.1 91 0.0 35 4   99.01     LegendNANA
07:00 17.8 15.6 87 0.0 2 10   99.06     LegendNANA
08:00 18.0 15.3 85 0.0 2 10   99.06     LegendNANA
09:00 17.4 14.2 82 0.0 2 11   99.07     LegendNANA
10:00 18.6 14.6 78 0.0 5 10   99.04     LegendNANA
11:00 20.3 14.3 69 0.0 3 7   99.01     LegendNANA
12:00 20.9 15.3 71 0.0 2 9   98.99 25   LegendNANA
13:00 18.1 15.0 82 0.0 36 18   98.98     LegendNANA
14:00 16.6 14.6 88 0.0 1 17   98.96     LegendNANA
15:00 15.4 14.6 95 0.6 36 12   98.97     LegendNANA
16:00 14.9 14.3 97 2.4 2 13   98.92     LegendNANA
17:00 15.4 14.5 95 0.6 1 14   98.91     LegendNANA
18:00 15.5 14.5 94 0.0 36 16   98.92     LegendNANA
19:00 15.6 14.0 90 0.0 2 14   98.98     LegendNANA
20:00 15.4 14.1 92 0.0 36 11   99.02     LegendNANA
21:00 15.3 14.4 94 0.0 36 6   99.04     LegendNANA
22:00 15.3 14.3 94 0.0 35 9   99.02     LegendNANA
23:00 15.2 14.0 92 0.0 1 6   99.03     LegendNANA

Notes on Data Quality.

Legend

  • E = Estimated
  • M = Missing
  • NA = Not Available*
  • [empty] = Indicates an unobserved value
Date modified: